Weather History for Hill City, KS

Change the Weather History Date:

Saturday, November 9, 2013

  Actual Average Record
Temperature  
Mean Temperature 48 °F 44 °F  
Max Temperature 63 °F 57 °F 82 °F (1995)
Min Temperature 33 °F 30 °F 11 °F (1950)
Degree Days  
Heating Degree Days 16    
Moisture  
Dew Point 34 °F    
Average Humidity 63    
Maximum Humidity 89    
Minimum Humidity 31    
Precipitation  
Precipitation 0.00 in 0.03 in 0.08 in (1998)
Month to date precipitation 0.69 0.37  
Year to date precipitation 17.56 21.65  
Sea Level Pressure  
Sea Level Pressure 30.17 in    
Wind  
Wind Speed 7 mph (NE)    
Max Wind Speed 12 mph    
Max Gust Speed -    
Visibility 10 miles    
Events      
T = Trace of Precipitation, MM = Missing Value Source: NWS Daily Summary

Daily Weather History Graph

Daily Weather History Graph

Search for Another Location

Airport:

Trip Planner

Search our weather history database for the weather conditions in past years. The results will help you decide how hot, cold, wet, or windy it might be!

Date:

Astronomy

Nov. 09, 2013 Rise Set
Actual Time 7:16 AM CST 5:29 PM CST
Civil Twilight 6:48 AM CST 5:57 PM CST
Nautical Twilight 6:16 AM CST 6:29 PM CST
Astronomical Twilight 5:44 AM CST 7:01 PM CST
Moon 12:54 PM CST (11/9) No Moon Set
Length of Visible Light 11h 09m
Length of Day
10h 12m
Waxing Crescent, 44% of the Moon is Illuminated
Nov 9
Waxing Crescent
Nov 9
First Quarter
Nov 17
Full
Nov 25
Last Quarter
Dec 2
New

Hourly Weather History & Observations

Time (CST) Temp. Windchill Dew Point Humidity Pressure Visibility Wind Dir Wind Speed Gust Speed Precip Events Conditions
12:53 AM 45.0 °F 39.3 °F 36.0 °F 71% 29.95 in 10.0 mi North 11.5 mph - N/A   Clear
1:53 AM 44.1 °F 38.6 °F 35.1 °F 71% 29.96 in 10.0 mi NNW 10.4 mph - N/A   Clear
2:53 AM 42.1 °F 40.2 °F 34.0 °F 73% 29.99 in 10.0 mi North 3.5 mph - N/A   Clear
3:53 AM 39.9 °F 33.9 °F 35.1 °F 83% 30.02 in 10.0 mi NNW 9.2 mph - N/A   Clear
4:53 AM 39.0 °F 34.8 °F 34.0 °F 82% 30.04 in 10.0 mi NNW 5.8 mph - N/A   Clear
5:53 AM 39.9 °F 37.8 °F 34.0 °F 79% 30.09 in 10.0 mi NNE 3.5 mph - N/A   Clear
6:53 AM 39.9 °F 34.5 °F 34.0 °F 79% 30.14 in 10.0 mi North 8.1 mph - N/A   Clear
7:53 AM 39.0 °F - 33.1 °F 79% 30.17 in 10.0 mi Calm Calm - N/A   Clear
8:53 AM 50.0 °F - 35.1 °F 57% 30.17 in 10.0 mi North 5.8 mph - N/A   Clear
9:53 AM 55.9 °F - 33.1 °F 42% 30.18 in 10.0 mi East 8.1 mph - N/A   Clear
10:53 AM 57.9 °F - 33.1 °F 39% 30.19 in 10.0 mi East 6.9 mph - N/A   Clear
11:53 AM 60.1 °F - 33.1 °F 36% 30.19 in 10.0 mi East 8.1 mph - N/A   Clear
12:53 PM 62.1 °F - 33.1 °F 34% 30.16 in 10.0 mi East 8.1 mph - N/A   Clear
1:53 PM 62.1 °F - 30.9 °F 31% 30.16 in 10.0 mi East 10.4 mph - N/A   Clear
2:53 PM 62.1 °F - 30.9 °F 31% 30.17 in 10.0 mi SE 8.1 mph - N/A   Clear
3:53 PM 61.0 °F - 33.1 °F 35% 30.18 in 10.0 mi East 6.9 mph - N/A   Clear
4:53 PM 57.0 °F - 36.0 °F 45% 30.21 in 10.0 mi East 3.5 mph - N/A   Clear
5:53 PM 48.0 °F - 35.1 °F 61% 30.23 in 10.0 mi East 4.6 mph - N/A   Clear
6:53 PM 46.0 °F 43.9 °F 35.1 °F 66% 30.26 in 10.0 mi East 4.6 mph - N/A   Clear
7:53 PM 41.0 °F 38.0 °F 34.0 °F 76% 30.30 in 10.0 mi NE 4.6 mph - N/A   Clear
8:53 PM 42.1 °F - 34.0 °F 73% 30.30 in 10.0 mi Calm Calm - N/A   Clear
9:53 PM 37.9 °F - 33.1 °F 83% 30.31 in 10.0 mi Calm Calm - N/A   Clear
10:53 PM 36.0 °F 31.1 °F 33.1 °F 89% 30.34 in 10.0 mi ENE 5.8 mph - N/A   Clear
11:53 PM 34.0 °F 28.8 °F 30.9 °F 89% 30.34 in 10.0 mi ENE 5.8 mph - N/A   Clear